SCP
0 0 0 0 0 0 0 0 0 0 0 0 0 0 0 0 0 0 0 0 0 0
0 0 0 0 0 0 0 0 0 0 0 0 0 0 0 0 0 0 0 0 0 0
0 0 0 0 0 0 0 0 0 0 0 0 0 0 0 0 0 0 0 0 0 0
0 0 0 0 0 0 0 0 0 0 0 0 0 0 0 0 0 0 0 0 0 0
0 0 0 0 0 0 0 0 0 0 0 0 0 0 0 0 0 0 0 0 0 0
0 0 0 0 0 0 0 0 0 0 0 0 0 0 0 0 0 0 0 0 0 0
0 0 0 0 0 0 0 0 0 0 0 0 0 0 0 0 0 0 0 0 0 0
0 0 0 0 0 0 0 0 0 0 0 0 0 0 0 0 0 0 0 0 0 0
0 0 0 0 0 0 0 0 0 0 0 0 0 0 0 0 0 0 0 0 0 0
0 0 0 0 0 0 0 0 0 0 0 0 0 0 0 0 0 0 0 0 0 0
0 0 0 0 0 0 0 0 0 0 0 0 0 0 0 0 0 0 0 0 0 0
0 0 0 0 0 0 0 0 0 0 0 0 0 0 0 0 0 0 0 0 0 0
0 0 0 0 0 0 0 0 0 0 0 0 0 0 0 0 0 0 0 0 0 0
0 0 0 0 0 0 0 0 0 0 0 0 0 0 0 0 0 0 0 0 0 0
Wind_Speed_500mb
49 44 43 48 54 51 44 39 37 38 40 41 44 45 46 48 50 47 51 50 49 49
42 36 39 41 45 47 43 41 40 39 40 40 41 43 45 45 50 49 50 46 50 51
35 31 36 41 42 39 38 38 39 40 40 40 42 44 47 49 46 51 47 48 49 50
24 24 26 28 31 34 35 35 36 35 37 39 39 41 46 45 43 45 46 46 49 51
23 23 22 24 24 25 25 27 27 30 31 31 29 29 31 32 35 38 40 43 46 48
22 22 21 20 20 19 18 17 15 15 16 17 20 24 26 28 28 31 34 37 41 45
25 24 22 19 17 15 12 10 9 7 5 8 13 19 23 27 30 33 37 40 44 47
28 25 22 19 15 11 7 3 2 5 10 14 21 27 33 37 40 44 47 48 51 54
26 24 20 15 10 5 1 5 9 12 14 18 23 30 36 43 46 48 52 56 58 60
23 18 14 10 6 2 3 7 12 16 20 23 30 38 45 51 54 57 60 64 68 70
22 17 12 7 3 5 9 15 20 24 29 33 39 46 52 57 62 65 66 68 69 71
19 13 8 3 5 12 18 23 28 34 37 40 42 47 52 58 63 66 68 68 67 68
13 6 5 11 19 27 32 34 34 36 40 44 46 48 51 56 62 66 68 71 72 72
8 11 15 19 22 25 29 33 36 38 40 45 49 52 56 58 61 64 69 73 78 76
Wind_Direction_500mb
238 242 242 239 243 248 253 255 255 254 253 255 257 261 264 272 275 273 282 277 283 284
218 228 235 234 234 241 249 252 254 253 254 256 259 263 270 273 273 278 280 279 287 285
214 222 229 233 235 239 247 253 256 255 256 257 261 263 267 266 273 278 278 284 284 285
208 212 216 220 231 236 243 248 254 256 258 257 260 260 267 272 276 277 280 283 286 288
179 188 198 206 214 222 228 238 243 248 255 259 261 266 270 272 276 282 286 289 291 294
179 186 190 195 203 210 216 221 230 245 257 269 278 282 284 289 293 296 300 303 304 305
166 166 167 166 169 171 176 186 196 212 249 287 298 300 299 298 299 300 301 302 302 303
162 161 159 156 151 147 147 156 272 305 314 315 313 309 305 304 304 303 303 304 304 302
162 160 159 154 148 139 349 330 322 323 327 325 318 313 311 310 311 311 310 310 309 309
163 161 156 150 144 120 355 340 329 333 331 328 321 317 315 313 315 315 314 312 310 306
167 164 155 142 104 10 343 333 333 334 328 331 323 317 317 314 311 309 307 305 304 304
164 158 146 114 359 341 337 333 333 333 322 320 320 317 316 314 312 310 308 307 306 306
146 120 32 358 347 339 332 326 321 327 327 325 324 324 323 321 319 317 316 315 316 316
65 13 352 343 326 315 319 327 328 329 330 330 331 332 330 329 327 324 321 320 320 318
Wind_Speed_850mb
49 44 43 48 54 51 44 39 37 38 40 41 44 45 46 48 50 47 51 50 49 49
42 36 39 41 45 47 43 41 40 39 40 40 41 43 45 45 50 49 50 46 50 51
35 31 36 41 42 39 38 38 39 40 40 40 42 44 47 49 46 51 47 48 49 50
24 24 26 28 31 34 35 35 36 35 37 39 39 41 46 45 43 45 46 46 49 51
23 23 22 24 24 25 25 27 27 30 31 31 29 29 31 32 35 38 40 43 46 48
22 22 21 20 20 19 18 17 15 15 16 17 20 24 26 28 28 31 34 37 41 45
25 24 22 19 17 15 12 10 9 7 5 8 13 19 23 27 30 33 37 40 44 47
28 25 22 19 15 11 7 3 2 5 10 14 21 27 33 37 40 44 47 48 51 54
26 24 20 15 10 5 1 5 9 12 14 18 23 30 36 43 46 48 52 56 58 60
23 18 14 10 6 2 3 7 12 16 20 23 30 38 45 51 54 57 60 64 68 70
22 17 12 7 3 5 9 15 20 24 29 33 39 46 52 57 62 65 66 68 69 71
19 13 8 3 5 12 18 23 28 34 37 40 42 47 52 58 63 66 68 68 67 68
13 6 5 11 19 27 32 34 34 36 40 44 46 48 51 56 62 66 68 71 72 72
8 11 15 19 22 25 29 33 36 38 40 45 49 52 56 58 61 64 69 73 78 76
Wind_Direction_850mb
238 242 242 239 243 248 253 255 255 254 253 255 257 261 264 272 275 273 282 277 283 284
218 228 235 234 234 241 249 252 254 253 254 256 259 263 270 273 273 278 280 279 287 285
214 222 229 233 235 239 247 253 256 255 256 257 261 263 267 266 273 278 278 284 284 285
208 212 216 220 231 236 243 248 254 256 258 257 260 260 267 272 276 277 280 283 286 288
179 188 198 206 214 222 228 238 243 248 255 259 261 266 270 272 276 282 286 289 291 294
179 186 190 195 203 210 216 221 230 245 257 269 278 282 284 289 293 296 300 303 304 305
166 166 167 166 169 171 176 186 196 212 249 287 298 300 299 298 299 300 301 302 302 303
162 161 159 156 151 147 147 156 272 305 314 315 313 309 305 304 304 303 303 304 304 302
162 160 159 154 148 139 349 330 322 323 327 325 318 313 311 310 311 311 310 310 309 309
163 161 156 150 144 120 355 340 329 333 331 328 321 317 315 313 315 315 314 312 310 306
167 164 155 142 104 10 343 333 333 334 328 331 323 317 317 314 311 309 307 305 304 304
164 158 146 114 359 341 337 333 333 333 322 320 320 317 316 314 312 310 308 307 306 306
146 120 32 358 347 339 332 326 321 327 327 325 324 324 323 321 319 317 316 315 316 316
65 13 352 343 326 315 319 327 328 329 330 330 331 332 330 329 327 324 321 320 320 318